Simultaneous Nadir Overpasses (SNOs) Predictions

Prediction of SNOs between AQUA and GOES-15 Satellite Orbit:

Table of predicted SNOs for the next 14.0 days since TLE Epoch: 1/26/2019
Index Date Time (AQUA) AQUA Lat,Lon GOES-15 Lat,Lon Distance(km) Time Diff (sec)
1 01/26/2019 09:55:00 -0.66,-124.93 -0.06,-127.82 328.39 80
2 01/26/2019 22:16:25 -0.44,-130.12 0.06,-127.71 273.96 80
3 01/28/2019 22:04:14 0.17,-127.16 0.06,-127.63 53.12 80
4 01/30/2019 21:52:03 0.78,-124.20 0.05,-127.54 379.83 80
5 01/31/2019 10:13:18 0.33,-129.35 -0.05,-127.60 199.52 80
6 02/02/2019 10:01:07 -0.28,-126.39 -0.05,-127.51 126.67 80
7 02/02/2019 22:22:32 -0.81,-131.59 0.05,-127.40 475.75 80
8 02/04/2019 09:48:56 -0.90,-123.43 -0.04,-127.41 452.50 80
9 02/04/2019 22:10:20 -0.25,-128.62 0.05,-127.30 150.02 80
10 02/06/2019 21:58:09 0.37,-125.66 0.05,-127.20 175.47 80
11 02/07/2019 10:19:24 0.74,-130.81 -0.05,-127.26 404.49 80




NCC Satellite Simultaneous Nadir Overpasses (SNOs) Prediction Service
